Location: Lecco
(45.8566°N, 9.3977°E)
Time: 11:26:06
(UTC+02:00)

Explorer 11/Cluster Stage 4 - All Passes

Search period start: 14 August 2020 00:00
Search period end: 24 August 2020 00:00
Orbit: 467 x 1258 km, 28.8° (Epoch: 13 August)

Date Brightness Start Highest point End Pass type
(mag) Time Alt. Az. Time Alt. Az. Time Alt. Az.
14 Aug - 00:05:43 10° SW 00:11:42 23° S 00:17:38 10° SE visible
14 Aug - 01:54:35 10° SW 01:59:44 18° SSW 02:04:40 10° SSE night (unlit)
14 Aug - 22:07:32 10° SSW 22:12:31 18° SSE 22:17:43 10° SE visible
14 Aug - 23:54:37 10° SW 00:00:34 23° S 00:06:33 10° SE visible
15 Aug - 01:43:37 10° SW 01:48:35 17° SSW 01:53:24 10° SSE night (unlit)
15 Aug - 21:56:21 10° SSW 22:01:23 19° SSE 22:06:41 10° SE visible
15 Aug - 23:43:35 10° SW 23:49:25 22° S 23:55:23 10° SE visible
16 Aug - 01:32:45 10° SW 01:37:26 16° SSW 01:42:02 10° SSE night (unlit)
16 Aug - 21:45:15 10° SSW 21:50:16 19° SSE 21:55:36 10° SE visible
16 Aug - 23:32:35 10° SW 23:38:17 22° S 23:44:11 10° SE visible
17 Aug - 01:21:58 10° SW 01:26:16 15° SSW 01:30:33 10° SSE night (unlit)
17 Aug - 19:50:30 10° SSE 19:51:33 10° SSE 19:52:38 10° SE daylight
17 Aug - 21:34:13 10° SSW 21:39:09 20° S 21:44:28 10° SE visible
17 Aug - 23:21:40 10° SW 23:27:10 21° S 23:32:53 10° SE visible
18 Aug - 01:11:21 10° SW 01:15:07 14° SSW 01:18:55 10° S visible
18 Aug - 19:38:51 10° S 19:40:28 11° SSE 19:42:09 10° SE daylight
18 Aug - 21:23:16 10° SW 21:28:03 19° S 21:33:18 10° SE visible
18 Aug - 23:10:50 10° SW 23:16:02 20° S 23:21:33 10° SE visible
19 Aug - 01:00:56 10° SW 01:03:58 12° SSW 01:07:02 10° S visible
19 Aug - 19:27:32 10° S 19:29:24 11° SSE 19:31:22 10° SE daylight
19 Aug - 21:12:23 10° SW 21:16:58 19° S 21:22:03 10° SE visible
19 Aug - 23:00:03 10° SW 23:04:56 19° S 23:10:08 10° SSE visible
20 Aug - 00:51:00 10° SW 00:52:50 11° SSW 00:54:41 10° S visible
20 Aug - 19:16:22 10° S 19:18:21 12° SSE 19:20:26 10° SE daylight
20 Aug - 21:01:32 10° SW 21:05:55 19° S 21:10:46 10° SE visible
20 Aug - 22:49:22 10° SW 22:53:50 17° S 22:58:38 10° SSE visible
21 Aug - 19:05:22 10° S 19:07:20 12° SSE 19:09:25 10° SE daylight
21 Aug - 20:50:47 10° SW 20:54:53 18° S 20:59:28 10° SE visible
21 Aug - 22:38:48 10° SW 22:42:45 16° SSW 22:47:01 10° SSE visible
22 Aug - 18:54:27 10° S 18:56:20 12° SSE 18:58:20 10° SE daylight
22 Aug - 20:40:05 10° SW 20:43:52 17° S 20:48:05 10° SE visible
22 Aug - 22:28:22 10° SW 22:31:41 14° SSW 22:35:16 10° SSE visible
23 Aug - 18:43:39 10° S 18:45:22 11° SSE 18:47:10 10° SE daylight
23 Aug - 20:29:28 10° SW 20:32:53 16° S 20:36:40 10° SE daylight
23 Aug - 22:18:13 10° SW 22:20:40 12° SSW 22:23:14 10° S visible
